Flag for U.S.A. Weather past 2 weeks in Midway, Midway Atoll, U.S.A.

Now
82 °F

Sunny.


Feels Like: 85 °F
Forecast: 75 / 82 °F
Wind: 9 mph from Northeast

Location: Midway Island Naval Air Facility

Current Time: Jul 5, 2015 at 1:11:52 PM

Latest Report: Jul 5, 2015 at 12:56 PM


Visibility: 10 mi

Pressure: 30.91 "Hg

Humidity: 63%

Dew point: 68 °F

Location of MidwayLocation

Historic Weather in Midway — Graph

°F

Midway temperature yesterday

Maximum temperature yesterday: 86 °F (at 2:56 PM)
Minimum temperature yesterday: 73 °F (at 11:04 PM)
Average temperature yesterday: 79 °F

Past Weeks' High & Low Weather Summary

 TemperatureHumidityPressure
High87 °F (Jul 3, 12:56 PM)100% (Jun 26, 5:14 AM)31.00 "Hg (Jun 26, 5:14 AM)
Low73 °F (Jun 25, 5:56 AM)51% (Jun 29, 10:56 AM)28.05 "Hg (Jun 29, 3:56 PM)
Average79 °F74%29.76 "Hg
* Reported Jun 20 11:25 AM — Jul 5 11:56 AM, Midway, Weather by CustomWeather, © 2015

Note: Actual official high and low records may vary slightly from our data, if they occured in-between our weather recording intervals... More about our weather records

Advertising

Midway weather history for previous 24 hours

 ConditionsComfort  
Time TempWeatherWind HumidityBarometerVisibility
11:56 AM
Sun, Jul 5
81 °FSunny.8 mph65%30.91 "Hg10 mi
10:56 AM80 °FSunny.10 mph69%30.91 "Hg10 mi
9:56 AM80 °FPassing clouds.10 mph69%30.90 "Hg10 mi
8:56 AM79 °FPassing clouds.7 mph71%30.90 "Hg10 mi
8:21 AM79 °FBroken clouds.9 mph74%29.99 "Hg10 mi
7:56 AM78 °FScattered clouds.9 mph77%30.89 "Hg10 mi
6:56 AM76 °FPassing clouds.7 mph82%30.88 "Hg10 mi
5:56 AM76 °FPassing clouds.6 mph82%30.86 "Hg10 mi
4:56 AM76 °FPassing clouds.8 mph82%30.84 "Hg10 mi
3:56 AM76 °FPassing clouds.6 mph82%30.84 "Hg10 mi
2:56 AM77 °FPassing clouds.7 mph79%30.83 "Hg10 mi
2:18 AM75 °FPartly cloudy.3 mph89%29.93 "Hg10 mi
1:56 AM76 °FFog.6 mph90%30.84 "Hg4 mi
12:56 AM76 °FPassing clouds.No wind85%30.84 "Hg10 mi
11:56 PM
Sat, Jul 4
75 °FPartly cloudy.6 mph94%30.84 "Hg10 mi
11:04 PM73 °FPartly cloudy.No wind100%29.94 "Hg10 mi
10:56 PM74 °FFog.No wind97%30.84 "Hg2 mi
10:43 PM75 °FFog.9 mph94%29.94 "Hg2 mi
9:56 PM77 °FClear.No wind87%30.84 "Hg10 mi
8:56 PM77 °FClear.No wind87%30.83 "Hg10 mi
7:56 PM77 °FPassing clouds.6 mph87%30.82 "Hg10 mi
6:56 PM79 °FPartly sunny.3 mph82%30.80 "Hg10 mi
5:56 PM78 °FScattered clouds.No wind88%30.79 "Hg10 mi
5:06 PM77 °FFog.8 mph94%29.89 "Hg3 mi
4:46 PM77 °FFog.9 mph94%29.90 "Hg2 mi
4:01 PM75 °FPartly sunny.13 mph100%29.90 "HgN/A
2:56 PM86 °FPassing clouds.7 mph63%30.79 "Hg10 mi
1:56 PM85 °FSunny.5 mph65%30.80 "Hg10 mi
Weather by CustomWeather, © 2015

See weather overviewHow to use our weather pages